GW7739 Weather Reports


time (UTC)temp
F
wind
direction
speed
knots
gust
knots
rain 1hr
in
rain 24hr
in
rain mn
in
humidity
%
barometer
mb
20260906052306 83 38 0.0 0.9 0.00 0.00 0.00 70 980.0
20260906051805 84 20 0.0 0.9 0.00 0.00 0.00 67 980.0
20260906051304 84 37 0.0 1.7 0.00 0.00 0.00 66 980.0
20260906050804 84 15 0.0 1.7 0.00 0.00 0.00 66 980.0
20260906050304 83 180 0.0 1.7 0.00 0.00 0.00 69 980.4
20260906045805 82 284 0.0 1.7 0.00 0.00 0.00 70 980.4
20260906045306 82 126 0.9 0.9 0.00 0.00 0.00 71 980.4
20260906044804 82 4 0.0 1.7 0.00 0.00 0.00 72 980.4
20260906044304 81 343 0.0 1.7 0.00 0.00 0.00 74 980.4
20260906043804 79 256 0.0 1.7 0.00 0.00 0.00 79 980.0
20260906043304 78 156 1.7 1.7 0.00 0.00 0.00 82 980.4
20260906042805 78 81 0.0 1.7 0.00 0.00 0.00 84 980.4
20260906042306 77 10 0.9 2.6 0.00 0.00 0.00 86 980.4
20260906041804 78 48 0.9 2.6 0.00 0.00 0.00 87 980.4
20260906041304 78 161 1.7 2.6 0.00 0.00 0.00 86 980.4
20260906040804 79 201 0.0 1.7 0.00 0.00 0.00 85 980.4
20260906040304 79 309 0.0 2.6 0.00 0.00 0.00 83 980.4
20260906035805 80 104 0.9 3.5 0.00 0.00 0.00 80 980.4
20260906035306 82 143 2.6 2.6 0.00 0.00 0.00 74 980.4
20260906034804 83 105 0.0 0.9 0.00 0.00 0.00 70 980.4
20260906034304 82 135 0.0 1.7 0.00 0.00 0.00 72 980.0
20260906033804 81 256 0.0 1.7 0.00 0.00 0.00 76 980.4
20260906033305 81 275 0.0 1.7 0.00 0.00 0.00 77 980.0
20260906032804 82 224 0.0 1.7 0.00 0.00 0.00 75 980.4
20260906032306 82 42 0.0 1.7 0.00 0.00 0.00 74 980.4
20260906031804 83 293 0.0 1.7 0.00 0.00 0.00 73 980.4
20260906031304 83 183 0.9 0.9 0.00 0.00 0.00 72 980.4
20260906030804 83 157 0.0 0.9 0.00 0.00 0.00 73 980.4
20260906030304 83 157 0.0 0.9 0.00 0.00 0.00 72 980.0
20260906025804 83 173 0.0 1.7 0.00 0.00 0.00 72 980.4
20260906025306 83 135 0.0 1.7 0.00 0.00 0.00 73 980.0
20260906024804 82 356 1.7 2.6 0.00 0.00 0.00 73 980.0
20260906024304 82 347 0.9 3.5 0.00 0.00 0.00 75 980.0
20260906023804 82 180 0.9 3.5 0.00 0.00 0.00 76 979.7
20260906023305 83 176 1.7 1.7 0.00 0.00 0.00 74 979.7
20260906022804 83 145 0.0 0.9 0.00 0.00 0.00 68 979.3
20260906022307 84 117 0.0 0.0 0.00 0.00 0.00 67 979.7
20260906021805 84 62 0.0 0.0 0.00 0.00 0.00 66 979.7
20260906021304 84 62 0.0 1.7 0.00 0.00 0.00 65 979.3
20260906020804 85 49 0.0 1.7 0.00 0.00 0.00 64 979.7
20260906020304 85 297 0.0 0.9 0.00 0.00 0.00 64 979.7
20260906015804 86 269 0.0 1.7 0.00 0.00 0.00 63 979.3
20260906015306 86 209 0.0 1.7 0.00 0.00 0.00 62 979.3
20260906014804 86 150 0.9 1.7 0.00 0.00 0.00 62 979.3
20260906014304 86 147 0.0 1.7 0.00 0.00 0.00 61 979.3
20260906013804 86 1.7 3.5 0.00 0.00 0.00 62 979.3
20260906013305 85 327 0.0 4.3 0.00 0.00 0.00 64 979.3
20260906012804 86 159 2.6 4.3 0.00 0.00 0.00 62 979.3
20260906012306 87 162 3.5 3.5 0.00 0.00 0.00 58 979.3
20260906011804 88 156 0.9 1.7 0.00 0.00 0.00 57 979.3
20260906011304 88 48 0.0 1.7 0.00 0.00 0.00 56 979.3
20260906010804 88 154 0.0 2.6 0.00 0.00 0.00 56 979.0
20260906010304 88 229 1.7 4.3 0.00 0.00 0.00 55 979.0
20260906005804 89 19 0.0 4.3 0.00 0.00 0.00 54 979.0
20260906005306 89 36 2.6 3.5 0.00 0.00 0.00 54 979.0
20260906004804 89 327 0.9 1.7 0.00 0.00 0.00 55 978.7
20260906004305 89 304 0.0 1.7 0.00 0.00 0.00 57 978.7
20260906003804 89 310 0.0 1.7 0.00 0.00 0.00 55 979.0
20260906003304 89 135 0.0 1.7 0.00 0.00 0.00 53 978.7
20260906002804 89 194 0.9 1.7 0.00 0.00 0.00 52 978.7
20260906002306 90 164 0.0 0.9 0.00 0.00 0.00 52 978.7
20260906001804 90 283 0.0 0.9 0.00 0.00 0.00 51 979.0
20260906001304 91 326 0.0 0.9 0.00 0.00 0.00 50 978.7
20260906000805 91 0.0 0.9 0.00 0.00 0.00 50 979.0
20260906000304 91 40 0.0 0.9 0.00 0.00 0.00 50 979.0
20260905235804 91 44 0.0 0.9 0.00 0.00 0.00 49 979.0
20260905235306 92 224 0.0 1.7 0.00 0.00 0.00 50 979.3
20260905234804 92 135 0.0 2.6 0.00 0.00 0.00 49 979.0
20260905234304 93 189 0.0 2.6 0.00 0.00 0.00 48 979.3
20260905233804 93 346 0.0 3.5 0.00 0.00 0.00 47 979.3
20260905233304 93 68 0.0 4.3 0.00 0.00 0.00 47 979.0
20260905232804 93 13 2.6 5.2 0.00 0.00 0.00 47 979.3
20260905232306 93 3 1.7 5.2 0.00 0.00 0.00 47 979.3
20260905231804 93 358 1.7 5.2 0.00 0.00 0.00 46 979.3
20260905231305 93 358 1.7 6.1 0.00 0.00 0.00 47 979.0
20260905230804 93 54 2.6 6.1 0.00 0.00 0.00 46 979.3
20260905230304 93 1.7 5.2 0.00 0.00 0.00 47 979.0
20260905225804 94 71 2.6 4.3 0.00 0.00 0.00 46 979.0
20260905225306 94 54 1.7 5.2 0.00 0.00 0.00 46 979.3
20260905224805 94 11 1.7 5.2 0.00 0.00 0.00 46 979.0
20260905224304 94 49 3.5 5.2 0.00 0.00 0.00 46 979.0
20260905223804 94 39 2.6 3.5 0.00 0.00 0.00 45 979.0
20260905223304 94 75 0.0 3.5 0.00 0.00 0.00 47 979.0
20260905222804 94 11 1.7 4.3 0.00 0.00 0.00 47 979.0
20260905222306 94 69 2.6 4.3 0.00 0.00 0.00 48 979.0
20260905221804 94 6 1.7 4.3 0.00 0.00 0.00 47 978.7
20260905221304 95 50 2.6 4.3 0.00 0.00 0.00 46 979.3
20260905220804 95 22 1.7 4.3 0.00 0.00 0.00 45 979.0
20260905220304 94 183 0.0 2.6 0.00 0.00 0.00 49 979.3
20260905215804 93 217 0.0 2.6 0.00 0.00 0.00 49 979.0
20260905215306 92 180 1.7 2.6 0.00 0.00 0.00 49 979.3
20260905214804 92 259 0.9 2.6 0.00 0.00 0.00 50 979.3
20260905214304 92 220 0.0 3.5 0.00 0.00 0.00 51 979.3
20260905213804 92 134 1.7 4.3 0.00 0.00 0.00 51 979.3
20260905213304 92 150 1.7 5.2 0.00 0.00 0.00 51 979.3
20260905212804 92 77 3.5 6.1 0.00 0.00 0.00 51 979.3
20260905212306 93 70 3.5 7.0 0.00 0.00 0.00 50 979.3
20260905211804 94 67 5.2 8.7 0.00 0.00 0.00 48 979.3
20260905211304 94 71 5.2 8.7 0.00 0.00 0.00 48 979.3
20260905210804 95 24 3.5 8.7 0.00 0.00 0.00 46 979.3
20260905210304 97 137 2.6 3.5 0.00 0.00 0.00 43 979.3
20260905205805 97 256 1.7 3.5 0.00 0.00 0.00 44 979.3
20260905205306 95 269 0.9 3.5 0.00 0.00 0.00 45 979.7
20260905204804 94 195 2.6 6.1 0.00 0.00 0.00 48 979.3
20260905204304 94 127 2.6 6.1 0.00 0.00 0.00 47 979.3
20260905203804 94 149 2.6 4.3 0.00 0.00 0.00 49 979.7
20260905203304 93 14 2.6 4.3 0.00 0.00 0.00 51 979.7
20260905202804 93 137 2.6 5.2 0.00 0.00 0.00 50 980.0
20260905202306 92 13 3.5 5.2 0.00 0.00 0.00 51 979.7
20260905201804 93 201 0.9 3.5 0.00 0.00 0.00 50 979.7
20260905201304 93 145 0.9 6.1 0.00 0.00 0.00 49 980.0
20260905200804 93 359 0.9 9.6 0.00 0.00 0.00 48 980.0
20260905200304 94 78 6.1 9.6 0.00 0.00 0.00 47 980.0
20260905195804 94 25 4.3 7.8 0.00 0.00 0.00 47 980.0
20260905195306 95 221 1.7 7.0 0.00 0.00 0.00 46 980.4
20260905194804 94 308 2.6 7.0 0.00 0.00 0.00 46 980.0
20260905194304 94 357 3.5 6.1 0.00 0.00 0.00 47 980.4
20260905193803 94 37 3.5 6.1 0.00 0.00 0.00 46 980.4
20260905193303 94 336 4.3 7.8 0.00 0.00 0.00 48 980.4
20260905192803 94 29 2.6 7.8 0.00 0.00 0.00 48 980.7
20260905192306 94 23 7.0 7.8 0.00 0.00 0.00 48 980.7
20260905191804 94 343 1.7 9.6 0.00 0.00 0.00 46 980.7
20260905191303 95 18 5.2 9.6 0.00 0.00 0.00 46 981.0
20260905190804 94 172 1.7 8.7 0.00 0.00 0.00 48 981.0
20260905190303 95 154 6.1 8.7 0.00 0.00 0.00 47 981.0
20260905185803 94 31 5.2 7.0 0.00 0.00 0.00 48 981.0
20260905185305 94 113 4.3 7.0 0.00 0.00 0.00 50 981.4
20260905184803 94 104 1.7 7.8 0.00 0.00 0.00 48 981.0
20260905184303 93 218 1.7 8.7 0.00 0.00 0.00 49 981.0
20260905183803 93 96 4.3 8.7 0.00 0.00 0.00 50 981.4
20260905183303 93 176 5.2 9.6 0.00 0.00 0.00 49 981.4
20260905182803 92 50 2.6 9.6 0.00 0.00 0.00 50 981.4
20260905182305 92 94 7.0 10.4 0.00 0.00 0.00 51 981.7
20260905181803 92 322 5.2 10.4 0.00 0.00 0.00 51 981.7
20260905181303 92 87 6.1 10.4 0.00 0.00 0.00 53 981.7
20260905180803 92 66 7.0 7.8 0.00 0.01 0.00 51 981.7
20260905180303 91 45 2.6 7.8 0.00 0.02 0.00 53 981.7
20260905175803 92 117 3.5 7.8 0.00 0.02 0.00 52 981.7
20260905175306 92 38 5.2 7.0 0.00 0.02 0.00 53 981.7
20260905174803 92 293 4.3 7.0 0.00 0.03 0.00 52 981.7
20260905174303 92 9 2.6 6.1 0.00 0.03 0.00 54 981.7
20260905173803 91 350 2.6 7.8 0.00 0.03 0.00 52 981.4
20260905173303 91 15 3.5 7.8 0.00 0.03 0.00 53 981.7
20260905172803 92 102 4.3 7.8 0.00 0.03 0.00 53 981.7
20260905172305 93 105 3.5 6.1 0.00 0.04 0.00 52 981.7
20260905171803 93 155 1.7 6.1 0.00 0.08 0.00 55 981.7
20260905171303 92 238 3.5 6.1 0.00 0.12 0.00 53 982.1
20260905170803 91 273 1.7 6.1 0.00 0.13 0.00 54 982.1
20260905170303 91 176 1.7 6.1 0.00 0.13 0.00 55 982.1
20260905165803 91 97 4.3 5.2 0.00 0.13 0.00 54 981.7
20260905165306 92 98 1.7 3.5 0.00 0.13 0.00 53 982.1
20260905164803 91 290 1.7 5.2 0.00 0.13 0.00 54 982.4
20260905164303 91 163 1.7 5.2 0.00 0.13 0.00 56 982.1
20260905163803 91 56 3.5 3.5 0.00 0.13 0.00 56 982.4
20260905163303 91 97 2.6 4.3 0.00 0.13 0.00 56 982.7
20260905162802 90 297 0.0 5.2 0.00 0.13 0.00 56 982.4
20260905162305 90 59 0.0 5.2 0.00 0.13 0.00 55 982.4
20260905161803 90 341 2.6 4.3 0.00 0.13 0.00 57 982.4
20260905161303 90 85 0.0 4.3 0.00 0.13 0.00 57 982.7
20260905160803 89 274 0.9 7.0 0.00 0.13 0.00 56 982.7
20260905160303 89 106 2.6 7.0 0.00 0.13 0.00 58 982.7
20260905155803 89 302 0.9 5.2 0.00 0.13 0.00 58 982.7
20260905155306 89 24 1.7 5.2 0.00 0.13 0.00 58 983.1
20260905154803 89 2 4.3 5.2 0.00 0.13 0.00 59 983.1
20260905154303 89 352 2.6 7.0 0.00 0.13 0.00 58 983.1
20260905153803 88 330 4.3 7.0 0.00 0.13 0.00 59 982.7
20260905153303 89 340 4.3 7.0 0.00 0.13 0.00 58 982.7
20260905152803 89 235 1.7 4.3 0.00 0.13 0.00 57 982.7
20260905152306 88 273 1.7 7.0 0.00 0.13 0.00 59 983.1
20260905151803 88 266 0.9 7.0 0.00 0.13 0.00 59 983.1
20260905151303 89 330 2.6 4.3 0.00 0.13 0.00 58 982.7
20260905150803 89 12 2.6 3.5 0.00 0.13 0.00 59 983.1
20260905150303 88 220 1.7 4.3 0.00 0.13 0.00 60 983.1
20260905145803 89 322 2.6 4.3 0.00 0.13 0.00 60 983.1
20260905145306 88 238 2.6 3.5 0.00 0.13 0.00 62 982.7
20260905144803 88 318 2.6 2.6 0.00 0.13 0.00 61 983.1
20260905144303 87 310 1.7 4.3 0.00 0.13 0.00 62 982.7
20260905143804 86 271 0.9 4.3 0.00 0.13 0.00 64 983.1
20260905143303 85 263 1.7 4.3 0.00 0.13 0.00 64 982.7
20260905142803 85 273 2.6 4.3 0.00 0.13 0.00 65 983.1
20260905142306 85 287 2.6 5.2 0.00 0.13 0.00 65 983.1
20260905141803 85 299 1.7 5.2 0.00 0.13 0.00 66 983.1
20260905141303 84 301 2.6 6.1 0.00 0.13 0.00 66 983.1
20260905140803 84 252 2.6 6.1 0.00 0.13 0.00 67 983.1
20260905140303 84 265 4.3 7.0 0.00 0.13 0.00 66 983.1
20260905135803 83 269 2.6 7.0 0.00 0.13 0.00 66 983.1
20260905135306 83 281 4.3 7.0 0.00 0.13 0.00 66 983.1
20260905134802 84 269 4.3 5.2 0.00 0.13 0.00 67 983.1
20260905134303 83 271 3.5 4.3 0.00 0.13 0.00 68 983.1
20260905133803 83 303 1.7 4.3 0.00 0.13 0.00 68 983.1
20260905133303 83 309 1.7 3.5 0.00 0.13 0.00 72 983.1
20260905132803 82 66 0.0 3.5 0.00 0.13 0.00 77 983.1
20260905132305 82 71 0.9 2.6 0.00 0.13 0.00 79 983.1
20260905131803 82 92 1.7 1.7 0.00 0.13 0.00 74 983.1
20260905131303 82 104 0.0 1.7 0.00 0.13 0.00 71 983.1
20260905130803 81 285 0.0 1.7 0.00 0.13 0.00 74 983.1
20260905130303 82 286 0.0 1.7 0.00 0.13 0.00 75 983.1
20260905125803 81 296 0.0 1.7 0.00 0.13 0.00 75 983.1
20260905125305 81 106 0.0 1.7 0.00 0.13 0.00 76 983.1
20260905124803 82 86 0.9 1.7 0.00 0.13 0.00 75 982.7
20260905124303 82 350 0.0 1.7 0.00 0.13 0.00 72 982.7
20260905123803 81 47 0.9 1.7 0.00 0.13 0.00 73 983.1
20260905123303 81 217 0.0 3.5 0.00 0.13 0.00 70 983.1
20260905122803 80 63 0.0 3.5 0.00 0.13 0.00 71 982.7
20260905122306 80 76 2.6 3.5 0.00 0.13 0.00 72 982.7
20260905121802 80 68 1.7 2.6 0.00 0.13 0.00 70 983.1
20260905121303 81 284 0.0 2.6 0.00 0.13 0.00 68 982.7
20260905120803 80 255 0.0 2.6 0.00 0.13 0.00 70 982.7
20260905120302 78 248 1.7 2.6 0.00 0.13 0.00 74 982.4
20260905115803 77 254 1.7 1.7 0.00 0.13 0.00 78 982.4
20260905115305 77 52 0.0 1.7 0.00 0.13 0.00 77 982.7
20260905114802 75 234 0.0 1.7 0.00 0.13 0.00 80 982.7
20260905114302 76 135 0.0 1.7 0.00 0.13 0.00 83 982.4
20260905113802 76 10 0.0 1.7 0.00 0.13 0.00 81 982.4
20260905113302 75 186 0.9 1.7 0.00 0.13 0.00 82 982.4
20260905112803 74 269 0.0 0.9 0.00 0.13 0.00 85 982.4
20260905112305 75 154 0.0 1.7 0.00 0.13 0.00 86 982.1
20260905111803 75 230 0.0 1.7 0.00 0.13 0.00 84 982.1
20260905111303 76 157 0.0 1.7 0.00 0.13 0.00 83 981.7
20260905110803 76 147 0.0 0.9 0.00 0.13 0.00 78 982.1
20260905110302 77 297 0.0 0.9 0.00 0.13 0.00 77 981.7
20260905105803 77 66 0.0 0.9 0.00 0.13 0.00 77 981.7
20260905105306 77 117 0.0 1.7 0.00 0.13 0.00 75 981.7
20260905104802 78 135 0.0 1.7 0.00 0.13 0.00 75 981.7
20260905104302 76 162 0.0 0.9 0.00 0.13 0.00 77 981.4
20260905103803 75 269 0.0 0.9 0.00 0.13 0.00 81 981.4
20260905103303 74 25 0.0 1.7 0.00 0.13 0.00 85 981.4
20260905102803 74 55 0.0 1.7 0.00 0.13 0.00 87 981.4
20260905102306 74 15 0.0 1.7 0.00 0.13 0.00 88 981.7
20260905101803 74 224 0.0 1.7 0.00 0.13 0.00 90 981.7
20260905101303 74 193 0.0 1.7 0.00 0.13 0.00 91 981.7
20260905100803 74 155 0.0 0.9 0.00 0.13 0.00 91 981.4
20260905100302 74 343 0.0 0.9 0.00 0.13 0.00 89 981.7
20260905095803 75 252 0.0 0.9 0.00 0.13 0.00 89 981.4
20260905095305 75 44 0.0 0.9 0.00 0.13 0.00 88 981.4
20260905094802 75 25 0.0 0.9 0.00 0.13 0.00 88 981.4
20260905094303 75 315 0.0 0.0 0.00 0.13 0.00 88 981.4
20260905093802 75 129 0.0 1.7 0.00 0.13 0.00 88 981.4
20260905093303 75 76 0.0 1.7 0.00 0.13 0.00 87 981.4
20260905092802 75 137 0.9 0.9 0.00 0.13 0.00 86 981.4
20260905092306 75 6 0.0 0.0 0.00 0.13 0.00 87 981.4
20260905091802 74 129 0.0 0.9 0.00 0.13 0.00 89 981.4
20260905091303 75 29 0.0 0.9 0.00 0.13 0.00 88 981.4
20260905090803 75 224 0.0 0.9 0.00 0.13 0.00 87 981.4
20260905090302 75 209 0.9 1.7 0.00 0.13 0.00 88 981.0
20260905085803 75 75 0.0 1.7 0.00 0.13 0.00 89 981.4
20260905085305 74 333 0.0 0.9 0.00 0.13 0.00 90 981.4
20260905084803 74 44 0.0 0.9 0.00 0.13 0.00 90 981.4
20260905084302 74 44 0.0 2.6 0.00 0.13 0.00 91 981.0
20260905083803 74 290 0.0 2.6 0.00 0.13 0.00 90 981.0
20260905083302 76 185 0.9 2.6 0.00 0.13 0.00 86 981.0
20260905082803 77 103 1.7 1.7 0.00 0.13 0.00 81 981.0
20260905082306 78 61 0.0 0.9 0.00 0.13 0.00 77 981.4
20260905081803 79 113 0.0 0.0 0.00 0.13 0.00 74 981.0
20260905081302 79 113 0.0 0.0 0.00 0.13 0.00 71 981.0
20260905080803 78 135 0.0 0.0 0.00 0.13 0.00 71 981.4
20260905080302 78 129 0.0 0.0 0.00 0.13 0.00 72 981.0
20260905075803 78 309 0.0 0.0 0.00 0.13 0.00 72 981.0
20260905075305 78 89 0.0 0.9 0.00 0.13 0.00 72 981.0
20260905074803 78 117 0.0 0.9 0.00 0.13 0.00 72 981.0
20260905074303 79 117 0.0 1.7 0.00 0.13 0.00 72 981.0
20260905073803 79 267 0.0 1.7 0.00 0.13 0.00 70 981.4
20260905073302 79 256 0.0 1.7 0.00 0.13 0.00 69 981.0
20260905072803 79 128 0.9 1.7 0.00 0.13 0.00 70 981.4
20260905072305 79 126 0.0 0.9 0.00 0.13 0.00 71 981.4
20260905071803 79 60 0.0 1.7 0.00 0.13 0.00 71 981.0
20260905071303 79 240 0.0 1.7 0.00 0.13 0.00 72 981.0
20260905070802 78 228 0.9 1.7 0.00 0.13 0.00 74 981.0
20260905070303 78 269 0.0 0.9 0.00 0.13 0.00 74 981.4
20260905065803 79 308 0.0 0.9 0.00 0.13 0.00 73 981.4
20260905065306 79 224 0.0 0.0 0.00 0.13 0.00 73 981.4
20260905064803 78 217 0.0 1.7 0.00 0.13 0.00 73 981.4
20260905064303 78 164 0.0 1.7 0.00 0.13 0.00 73 981.7
20260905063802 78 55 0.0 0.0 0.00 0.13 0.00 74 981.7
20260905063303 78 130 0.0 1.7 0.00 0.13 0.00 76 981.4
20260905062803 77 129 0.0 1.7 0.00 0.13 0.00 78 981.7
20260905062305 77 137 0.0 1.7 0.00 0.13 0.00 84 981.4
20260905061802 77 75 0.0 1.7 0.00 0.13 0.00 82 982.1
20260905061302 77 205 0.0 1.7 0.00 0.13 0.00 83 981.7
20260905060803 77 321 0.9 1.7 0.00 0.13 0.00 83 981.7
20260905060303 77 321 0.0 2.6 0.00 0.13 0.00 83 982.1
20260905055803 77 333 0.0 2.6 0.00 0.13 0.00 84 981.7
20260905055306 77 92 1.7 1.7 0.00 0.13 0.00 85 982.4
20260905054802 77 170 0.0 1.7 0.00 0.13 0.00 86 982.1
20260905054302 77 168 0.9 1.7 0.00 0.13 0.00 86 982.4
20260905053802 77 166 0.0 0.9 0.00 0.13 0.00 87 982.1
20260905053302 77 253 0.0 1.7 0.00 0.13 0.00 86 982.1
20260905052802 77 63 0.0 1.7 0.00 0.13 0.00 85 982.1